Regional Weather Roundup
Issued by NWS

Home | Current Version | Previous Version | Graphics & Text | Print | Product List | Glossary On
Versions: 1 2 3 4 5 6 7 8 9 10 11 12 13 14 15 16 17 18 19 20 21 22 23 24 25 26 27 28 29 30 31 32 33 34 35 36 37 38 39 40 41 42 43 44 45 46 47 48 49 50
000
ASUS43 KMKX 221300
RWRWI

WISCONSIN REGIONAL WEATHER ROUNDUP
NATIONAL WEATHER SERVICE MILWAUKEE/SULLIVAN WI
800 AM CDT SUN OCT 22 2017

NOTE: "FAIR" INDICATES FEW OR NO CLOUDS BELOW 12,000 FEET WITH NO
SIGNIFICANT WEATHER AND/OR OBSTRUCTIONS TO VISIBILITY.

WIZ001-002-006>008-014>016-023>028-221400-
NORTHWEST WISCONSIN

CITY           SKY/WX    TMP DP  RH WIND       PRES   REMARKS
SUPERIOR ARPT  CLOUDY    47  43  85 SW8       29.83R
ASHLAND        CLOUDY    49  43  80 SW12      29.86R
HAYWARD        CLOUDY    48  41  76 SW8       29.90R
SIREN          CLOUDY    47  40  78 W6        29.91R
CUMBERLAND     CLOUDY    46  39  76 W12       29.91R
RICE LAKE      CLOUDY    48  42  79 SW6       29.93R
CHETEK         CLOUDY    48  43  82 W3        29.92R
LADYSMITH      CLOUDY    49  45  86 SW6       29.93R
EAU CLAIRE     NOT AVBL
MENOMONIE      CLOUDY    50  43  76 W8        29.93S
NEW RICHMOND   CLOUDY    48  39  72 W6        29.94R
OSCEOLA        CLOUDY    49  41  73 W9        29.96R
$$

WIZ003>005-009-010-017-018-221400-
NORTH CENTRAL WISCONSIN

CITY           SKY/WX    TMP DP  RH WIND       PRES   REMARKS
MANITOWISH WTR DRIZZLE   48  48 100 W7        29.87R
ARBOR VITAE    DRIZZLE   52  50  93 W7        29.88R
WOODRUFF       DRIZZLE   52  50  93 W7        29.88R
RHINELANDER    CLOUDY    50  49  96 W12       29.90R
EAGLE RIVER    NOT AVBL
LAND O LAKES   DRIZZLE   51  50  95 W3        29.88R
PHILLIPS       RAIN      48  48 100 SW6       29.89R
TOMAHAWK       CLOUDY    49  47  93 W3        29.90R
MEDFORD        LGT RAIN  48  46  92 W7        29.91R
MERRILL        CLOUDY    51  50  97 W9        29.90R
$$

WIZ029-030-035-036-043>047-221400-
CENTRAL WISCONSIN

CITY           SKY/WX    TMP DP  RH WIND       PRES   REMARKS
WAUSAU         LGT RAIN  50  46  86 W14       29.90R
MOSINEE        CLOUDY    52  48  87 W10       29.92R
MARSHFIELD     CLOUDY    50  47  89 W8        29.92R
STEVENS POINT  CLOUDY    52  49  90 W10       29.91R
WAUPACA        CLOUDY    58  55  89 W9G18     29.89R
WAUTOMA        LGT RAIN N/A N/A N/A W13G18    29.93R
WISC RAPIDS    LGT RAIN  53  51  93 NW8       29.93R
CAMP DOUGLAS   NOT AVBL
$$

WIZ011>013-019>022-031-037>040-048>050-221400-
NORTHEAST WISCONSIN

CITY           SKY/WX    TMP DP  RH WIND       PRES   REMARKS
ANTIGO         CLOUDY    51  51  99 W9        29.89R FOG
SHAWANO        CLOUDY    67  58  74 SW6       29.85R
OCONTO         CLOUDY    60  55  83 S8        29.85S
STURGEON BAY   CLOUDY    60  54  80 S17G23    29.88S
GREEN BAY      CLOUDY    63  58  83 S10       29.87R
MANITOWOC      CLOUDY    58  53  84 S10       29.90
APPLETON       CLOUDY    64  55  72 S17       29.86R
CLINTONVILLE   CLOUDY    63  57  82 SW8       29.86R
OSHKOSH        CLOUDY    64  59  83 S15G23    29.88R
$$

WIZ032>034-041-042-053>061-221400-
SOUTHWEST WISCONSIN

CITY           SKY/WX    TMP DP  RH WIND       PRES   REMARKS
LA CROSSE      CLOUDY    53  48  83 W6        29.95R
SPARTA         CLOUDY    49  48  96 W5        29.94S
VIROQUA        CLOUDY    49  48  97 NW7       29.94S
BOSCOBEL       CLOUDY    51  48  89 W5        29.95R
PRAIRIE DU CHI CLOUDY    51  46  82 CALM      29.95R
PLATTEVILLE    CLOUDY    52  52  99 NW10      29.94R
$$

WIZ056-057-062-063-064-067-068-221400-
SOUTH CENTRAL WISCONSIN

CITY           SKY/WX    TMP DP  RH WIND       PRES   REMARKS
REEDSBURG      LGT RAIN  53  53 100 W3        29.92R
BARABOO/DELLS  RAIN      53  51  93 W7        29.92R
LONE ROCK      NOT AVBL
MINERAL POINT  LGT RAIN  52  52 100 NW9       29.94R
MADISON        LGT RAIN  62  60  93 W5        29.89R
MIDDLETON      CLOUDY    59  59 100 W10G17    29.90S
WATERTOWN      RAIN      61  61 100 S9        29.90R
MONROE         RAIN      61  59  94 W6        29.90R
JANESVILLE     LGT RAIN  63  63 100 S9        29.89F
$$

WIZ051-052-058>065-066-070>072-221400-
SOUTHEAST WISCONSIN

CITY           SKY/WX    TMP DP  RH WIND       PRES   REMARKS
MILWAUKEE      CLOUDY    62  57  83 S5        29.93R
WAUKESHA       CLOUDY    63  55  77 S7        29.93R
MILWAUKEE/TIMM MOCLDY    64  55  72 S6        29.92R
RACINE         CLOUDY    61  57  87 S12       29.95R
BURLINGTON     CLOUDY    64  60  85 S5        29.92R
KENOSHA        MOCLDY    67  58  72 S10       29.93R
FOND DU LAC    HVY RAIN  64  58  80 S13       29.90R
SHEBOYGAN      CLOUDY    60  56  86 S10       29.90R
WEST BEND      LGT RAIN  63  59  88 S8        29.90S
JUNEAU         HVY RAIN  61  59  94 S10       29.91R
$$

LSZ147-162-221400-
LAKE SUPERIOR

STATION/POSITION TIME  TEMP    WIND        PRES    WAVE
                       AIR SEA DIR/SP/G            HT/PER
                 (UTC) (F)     (DEG/KT/KT) (MB)    (FT/S)
W MID LAKE BUOY  1150   53 52              1007.7R   5/ 5
DEVILS ISLAND    1200   52     240/ 21/ 25 1009.1R
SAXON HARBOR     1240   53     190/  5/  8 1010.5R
$$

LMZ867-665-643>646-221400-
LAKE MICHIGAN

STATION/POSITION TIME  TEMP    WIND        PRES    WAVE
                       AIR SEA DIR/SP/G            HT/PER
                 (UTC) (F)     (DEG/KT/KT) (MB)    (FT/S)
S GREEN BAY BUOY 1200   62 58  170/ 17/ 23 1010.6
N MID LAKE BUOY  1150   62 58  170/ 17/ 21 1012.3R   7/ 7
NORTHPORT PIER   1240   59     160/  8/ 15 1011.9R
KEWAUNEE LAKESHO 1230   52     170/ 10/ 11 1011.3S
SHEBOYGAN LAKESH 1200   56     180/ 19/ 21 1012.3S
PORT WASHINGTON  1230   56     190/  7/ 10 1013.9S
ATWATER BUOY     1109   56 52  160/ 14/ 17 1012.9R
MILWAUKEE LAKESH 1220   57     140/  6/  6   N/A
S MID LAKE BUOY  1150   63 60  140/ 19/ 23 1013.5F   3/ 5
KENOSHA   LAKESH 1200   58     170/ 12/ 14 1012.9
$$

TC  - TEMPERATURE IN CELSIUS
VSB - VISIBILITY IN STATUTE MILES
WCI - WIND CHILL INDEX
HX  - HEAT INDEX





USA.gov is the U.S. government's official web portal to all federal, state and local government web resources and services.